Location: Newark
(41.6500°N, 71.4833°W)
Time: 23:21:13
(UTC+00:00)

Altair - Visible Passes

Search period start: 26 January 2020 00:00
Search period end: 05 February 2020 00:00
Orbit: 1502 x 1682 km, 47.2° (Epoch: 26 January)

Date Brightness Start Highest point End Pass type
(mag) Time Alt. Az. Time Alt. Az. Time Alt. Az.
26 Jan 9.4 11:16:38 10° S 11:25:07 33° SE 11:33:46 10° ENE visible
27 Jan 9.5 10:51:52 10° S 11:00:03 30° SE 11:08:23 10° ENE visible
28 Jan 9.5 10:27:08 10° S 10:34:58 28° SE 10:42:58 10° ENE visible
29 Jan 9.5 10:02:27 10° S 10:09:55 25° SE 10:17:31 10° ENE visible
30 Jan 9.6 09:37:50 10° S 09:44:52 23° SE 09:52:01 10° E visible
31 Jan 9.6 09:13:17 10° SSE 09:19:49 20° SE 09:26:28 10° E visible
31 Jan 8.2 11:13:27 10° SW 11:23:10 64° SE 11:33:10 10° ENE visible
01 Feb 9.6 08:48:51 10° SSE 08:54:47 18° ESE 09:00:49 10° E visible
01 Feb 8.2 10:48:24 10° SW 10:58:00 60° SE 11:07:55 10° ENE visible
02 Feb 9.6 08:24:33 10° SSE 08:29:46 16° ESE 08:35:04 10° E visible
02 Feb 8.2 10:23:22 10° SW 10:32:52 56° SE 10:42:39 10° ENE visible
03 Feb 9.6 08:00:25 10° SSE 08:04:45 14° ESE 08:09:07 10° E visible
03 Feb 8.3 09:58:23 10° SSW 10:07:44 52° SE 10:17:23 10° ENE visible
04 Feb 9.6 07:36:41 10° SE 07:39:45 12° ESE 07:42:50 10° ESE visible
04 Feb 8.3 09:33:34 11° SSW 09:42:36 49° SE 09:52:06 10° ENE visible
